Location: New Mesquite
(33.1168°N, 96.4336°W)
Time: 22:07:00
(UTC+00:00)

Meteor 1-27 Rocket - Pass Details

Date: 10 July 2022
Orbit: 828 x 911 km, 81.3° (Epoch: 07 August)

Event Time Altitude Azimuth Distance (km) Brightness Sun altitude
Rises 08:34:41 0° 346° (NNW) 3,395 7.5 -27.3°
Reaches altitude 10° 08:37:09 10° 343° (NNW) 2,450 6.6 -27.0°
Enters shadow 08:42:01 54° 289° (WNW) 1,004 3.9 -26.5°
